Saint Bonnet de Bellac- Haute Vienne - France
Donnes mto: lundi, 09/01/2012
Date Horaire Temp. E. Hum. E. P.atmo. Pluie Vent Direction Direction Ensoleilleme Solaire P. de rose Temp au vent Rafales
09/01/2012 00:00 6,3 C 90 % 1029,6 hPa 0,0 mm 0,0 km/h (0 Bft) NE 45 0 min 0 W/m 4,8 C 6,3 C 0,0 km/h (0 Bft)
09/01/2012 00:10 6,3 C 90 % 1029,5 hPa 0,0 mm 2,5 km/h (1 Bft) NO 315 0 min 0 W/m 4,8 C 6,3 C 2,5 km/h (1 Bft)
09/01/2012 00:20 6,3 C 90 % 1029,4 hPa 0,0 mm 0,0 km/h (0 Bft) N-NO 337 0 min 0 W/m 4,8 C 6,3 C 0,0 km/h (0 Bft)
09/01/2012 00:30 6,2 C 90 % 1029,5 hPa 0,0 mm 0,0 km/h (0 Bft) NE 45 0 min 0 W/m 4,7 C 6,2 C 0,0 km/h (0 Bft)
09/01/2012 00:40 6,2 C 90 % 1029,5 hPa 0,0 mm 0,0 km/h (0 Bft) NE 45 0 min 0 W/m 4,7 C 6,2 C 0,0 km/h (0 Bft)
09/01/2012 00:50 6,1 C 89 % 1029,5 hPa 0,0 mm 0,0 km/h (0 Bft) NE 45 0 min 0 W/m 4,4 C 6,1 C 0,0 km/h (0 Bft)
09/01/2012 01:00 6,1 C 89 % 1029,6 hPa 0,0 mm 0,0 km/h (0 Bft) NE 45 0 min 0 W/m 4,4 C 6,1 C 0,0 km/h (0 Bft)
09/01/2012 01:10 6,0 C 89 % 1029,5 hPa 0,0 mm 0,0 km/h (0 Bft) NE 45 0 min 0 W/m 4,3 C 6,0 C 0,0 km/h (0 Bft)
09/01/2012 01:20 6,0 C 89 % 1029,5 hPa 0,0 mm 0,0 km/h (0 Bft) N-NE 22 0 min 0 W/m 4,3 C 6,0 C 0,0 km/h (0 Bft)
09/01/2012 01:30 6,0 C 89 % 1029,6 hPa 0,0 mm 0,0 km/h (0 Bft) N-NE 22 0 min 0 W/m 4,3 C 6,0 C 0,0 km/h (0 Bft)
09/01/2012 01:40 5,9 C 89 % 1029,6 hPa 0,0 mm 0,0 km/h (0 Bft) N-NE 22 0 min 0 W/m 4,2 C 5,9 C 0,0 km/h (0 Bft)
09/01/2012 01:50 5,9 C 89 % 1029,6 hPa 0,0 mm 0,0 km/h (0 Bft) N-NE 22 0 min 0 W/m 4,2 C 5,9 C 0,0 km/h (0 Bft)
09/01/2012 02:02 5,8 C 89 % 1029,7 hPa 0,0 mm 0,0 km/h (0 Bft) N-NE 22 0 min 0 W/m 4,1 C 5,8 C 0,0 km/h (0 Bft)
09/01/2012 02:10 5,8 C 89 % 1029,6 hPa 0,0 mm 0,0 km/h (0 Bft) N-NE 22 0 min 0 W/m 4,1 C 5,8 C 0,0 km/h (0 Bft)
09/01/2012 02:20 5,8 C 89 % 1029,6 hPa 0,0 mm 0,0 km/h (0 Bft) N-NE 22 0 min 0 W/m 4,1 C 5,8 C 0,0 km/h (0 Bft)
09/01/2012 02:30 5,8 C 89 % 1029,6 hPa 0,0 mm 0,0 km/h (0 Bft) N-NE 22 0 min 0 W/m 4,1 C 5,8 C 0,0 km/h (0 Bft)
09/01/2012 02:40 5,8 C 89 % 1029,6 hPa 0,0 mm 0,0 km/h (0 Bft) N-NE 22 0 min 0 W/m 4,1 C 5,8 C 0,0 km/h (0 Bft)
09/01/2012 02:50 5,8 C 89 % 1029,7 hPa 0,0 mm 0,0 km/h (0 Bft) N-NE 22 0 min 0 W/m 4,1 C 5,8 C 0,0 km/h (0 Bft)
09/01/2012 03:00 5,8 C 89 % 1029,7 hPa 0,0 mm 0,0 km/h (0 Bft) N-NE 22 0 min 0 W/m 4,1 C 5,8 C 0,0 km/h (0 Bft)
09/01/2012 03:10 5,8 C 88 % 1029,8 hPa 0,0 mm 0,0 km/h (0 Bft) N-NE 22 0 min 0 W/m 4,0 C 5,8 C 0,0 km/h (0 Bft)
09/01/2012 03:20 5,7 C 88 % 1029,8 hPa 0,0 mm 0,0 km/h (0 Bft) N-NE 22 0 min 0 W/m 3,9 C 5,7 C 0,0 km/h (0 Bft)
09/01/2012 03:30 5,7 C 88 % 1029,8 hPa 0,0 mm 0,0 km/h (0 Bft) N-NE 22 0 min 0 W/m 3,9 C 5,7 C 0,0 km/h (0 Bft)
09/01/2012 03:40 5,6 C 88 % 1029,8 hPa 0,0 mm 0,0 km/h (0 Bft) N-NE 22 0 min 0 W/m 3,8 C 5,6 C 0,0 km/h (0 Bft)
09/01/2012 03:50 5,7 C 88 % 1029,8 hPa 0,0 mm 0,0 km/h (0 Bft) N-NE 22 0 min 0 W/m 3,9 C 5,7 C 0,0 km/h (0 Bft)
09/01/2012 04:00 5,7 C 88 % 1029,8 hPa 0,0 mm 0,0 km/h (0 Bft) N-NE 22 0 min 0 W/m 3,9 C 5,7 C 0,0 km/h (0 Bft)
09/01/2012 04:10 5,7 C 88 % 1029,8 hPa 0,0 mm 0,0 km/h (0 Bft) N-NE 22 0 min 0 W/m 3,9 C 5,7 C 0,0 km/h (0 Bft)
09/01/2012 04:20 5,6 C 88 % 1029,8 hPa 0,0 mm 0,0 km/h (0 Bft) N-NE 22 0 min 0 W/m 3,8 C 5,6 C 0,0 km/h (0 Bft)
09/01/2012 04:30 5,6 C 88 % 1029,9 hPa 0,0 mm 0,0 km/h (0 Bft) N-NE 22 0 min 0 W/m 3,8 C 5,6 C 0,0 km/h (0 Bft)
09/01/2012 04:40 5,6 C 88 % 1030,0 hPa 0,0 mm 0,0 km/h (0 Bft) N-NE 22 0 min 0 W/m 3,8 C 5,6 C 0,0 km/h (0 Bft)
09/01/2012 04:50 5,5 C 88 % 1030,0 hPa 0,0 mm 0,0 km/h (0 Bft) N-NE 22 0 min 0 W/m 3,7 C 5,5 C 0,0 km/h (0 Bft)
09/01/2012 05:00 5,5 C 88 % 1030,0 hPa 0,0 mm 0,0 km/h (0 Bft) N-NE 22 0 min 0 W/m 3,7 C 5,5 C 0,0 km/h (0 Bft)
09/01/2012 05:10 5,5 C 88 % 1030,0 hPa 0,0 mm 0,0 km/h (0 Bft) N-NE 22 0 min 0 W/m 3,7 C 5,5 C 0,0 km/h (0 Bft)
09/01/2012 05:20 5,4 C 88 % 1030,0 hPa 0,0 mm 0,0 km/h (0 Bft) N-NE 22 0 min 0 W/m 3,6 C 5,4 C 0,0 km/h (0 Bft)
09/01/2012 05:30 5,4 C 88 % 1030,0 hPa 0,0 mm 0,0 km/h (0 Bft) N-NE 22 0 min 0 W/m 3,6 C 5,4 C 0,0 km/h (0 Bft)
09/01/2012 05:40 5,4 C 88 % 1030,0 hPa 0,0 mm 0,0 km/h (0 Bft) N-NE 22 0 min 0 W/m 3,6 C 5,4 C 0,0 km/h (0 Bft)
09/01/2012 05:50 5,4 C 88 % 1030,0 hPa 0,0 mm 0,0 km/h (0 Bft) N-NE 22 0 min 0 W/m 3,6 C 5,4 C 0,0 km/h (0 Bft)
09/01/2012 06:00 5,3 C 88 % 1030,0 hPa 0,0 mm 0,0 km/h (0 Bft) N-NE 22 0 min 0 W/m 3,5 C 5,3 C 0,0 km/h (0 Bft)
09/01/2012 06:10 5,3 C 88 % 1030,2 hPa 0,0 mm 0,0 km/h (0 Bft) N-NE 22 0 min 0 W/m 3,5 C 5,3 C 0,0 km/h (0 Bft)
09/01/2012 06:20 5,2 C 88 % 1030,1 hPa 0,0 mm 0,0 km/h (0 Bft) N-NE 22 0 min 0 W/m 3,4 C 5,2 C 0,0 km/h (0 Bft)
09/01/2012 06:30 5,1 C 88 % 1030,3 hPa 0,0 mm 0,0 km/h (0 Bft) N-NE 22 0 min 0 W/m 3,3 C 5,1 C 0,0 km/h (0 Bft)
09/01/2012 06:40 5,1 C 88 % 1030,3 hPa 0,0 mm 0,0 km/h (0 Bft) N-NE 22 0 min 0 W/m 3,3 C 5,1 C 0,0 km/h (0 Bft)
09/01/2012 06:50 5,0 C 88 % 1030,4 hPa 0,0 mm 0,0 km/h (0 Bft) N-NE 22 0 min 0 W/m 3,2 C 5,0 C 0,0 km/h (0 Bft)
09/01/2012 07:00 4,9 C 88 % 1030,5 hPa 0,0 mm 0,0 km/h (0 Bft) N-NE 22 0 min 0 W/m 3,1 C 4,9 C 0,0 km/h (0 Bft)
09/01/2012 07:10 4,9 C 88 % 1030,5 hPa 0,0 mm 0,0 km/h (0 Bft) N-NE 22 0 min 0 W/m 3,1 C 4,9 C 0,0 km/h (0 Bft)
09/01/2012 07:20 4,8 C 88 % 1030,5 hPa 0,0 mm 0,0 km/h (0 Bft) N-NE 22 0 min 0 W/m 3,0 C 4,8 C 0,0 km/h (0 Bft)
09/01/2012 07:30 4,6 C 88 % 1030,6 hPa 0,0 mm 0,0 km/h (0 Bft) N-NE 22 0 min 0 W/m 2,8 C 4,6 C 0,0 km/h (0 Bft)
09/01/2012 07:40 4,4 C 88 % 1030,7 hPa 0,0 mm 0,0 km/h (0 Bft) N-NE 22 0 min 0 W/m 2,6 C 4,4 C 0,0 km/h (0 Bft)
09/01/2012 07:50 4,2 C 89 % 1030,8 hPa 0,0 mm 0,0 km/h (0 Bft) N-NE 22 0 min 0 W/m 2,6 C 4,2 C 0,0 km/h (0 Bft)
09/01/2012 08:00 3,9 C 89 % 1030,8 hPa 0,0 mm 0,0 km/h (0 Bft) N-NE 22 0 min 0 W/m 2,3 C 3,9 C 0,0 km/h (0 Bft)
09/01/2012 08:10 3,7 C 89 % 1030,9 hPa 0,0 mm 0,0 km/h (0 Bft) NE 45 0 min 0 W/m 2,1 C 3,7 C 0,0 km/h (0 Bft)
09/01/2012 08:20 3,4 C 88 % 1031,1 hPa 0,0 mm 0,0 km/h (0 Bft) NE 45 0 min 0 W/m 1,6 C 3,4 C 0,0 km/h (0 Bft)
09/01/2012 08:30 3,2 C 89 % 1031,1 hPa 0,0 mm 0,0 km/h (0 Bft) NE 45 0 min 0 W/m 1,6 C 3,2 C 0,0 km/h (0 Bft)
09/01/2012 08:40 3,2 C 90 % 1031,2 hPa 0,0 mm 0,0 km/h (0 Bft) NE 45 0 min 0 W/m 1,7 C 3,2 C 0,0 km/h (0 Bft)
09/01/2012 08:50 3,1 C 90 % 1031,3 hPa 0,0 mm 0,0 km/h (0 Bft) NE 45 2 min 0 W/m 1,6 C 3,1 C 0,0 km/h (0 Bft)
09/01/2012 09:00 3,2 C 90 % 1031,3 hPa 0,0 mm 0,0 km/h (0 Bft) NE 45 2 min 0 W/m 1,7 C 3,2 C 0,0 km/h (0 Bft)
09/01/2012 09:10 3,3 C 91 % 1031,4 hPa 0,0 mm 0,0 km/h (0 Bft) N 360 2 min 0 W/m 2,0 C 3,3 C 0,0 km/h (0 Bft)
09/01/2012 09:20 3,4 C 91 % 1031,5 hPa 0,0 mm 0,0 km/h (0 Bft) N 360 2 min 0 W/m 2,1 C 3,4 C 0,0 km/h (0 Bft)
09/01/2012 09:30 3,4 C 91 % 1031,5 hPa 0,0 mm 0,0 km/h (0 Bft) N 360 2 min 0 W/m 2,1 C 3,4 C 0,0 km/h (0 Bft)
09/01/2012 09:40 3,8 C 92 % 1031,5 hPa 0,0 mm 0,0 km/h (0 Bft) N 360 2 min 0 W/m 2,6 C 3,8 C 0,0 km/h (0 Bft)
09/01/2012 09:50 4,9 C 93 % 1031,7 hPa 0,0 mm 0,0 km/h (0 Bft) N 360 2 min 0 W/m 3,9 C 4,9 C 0,0 km/h (0 Bft)
09/01/2012 10:00 5,4 C 92 % 1031,9 hPa 0,0 mm 0,0 km/h (0 Bft) N 360 2 min 0 W/m 4,2 C 5,4 C 0,0 km/h (0 Bft)
09/01/2012 10:10 5,6 C 91 % 1032,0 hPa 0,0 mm 0,0 km/h (0 Bft) N 360 2 min 0 W/m 4,2 C 5,6 C 0,0 km/h (0 Bft)
09/01/2012 10:20 5,8 C 91 % 1032,1 hPa 0,0 mm 0,0 km/h (0 Bft) N 360 2 min 0 W/m 4,4 C 5,8 C 0,0 km/h (0 Bft)
09/01/2012 10:30 5,9 C 90 % 1032,2 hPa 0,0 mm 0,0 km/h (0 Bft) N-NE 22 2 min 0 W/m 4,4 C 5,9 C 0,0 km/h (0 Bft)
09/01/2012 10:40 6,0 C 91 % 1032,2 hPa 0,0 mm 0,0 km/h (0 Bft) N-NE 22 2 min 0 W/m 4,6 C 6,0 C 0,0 km/h (0 Bft)
09/01/2012 10:50 6,3 C 91 % 1032,2 hPa 0,0 mm 0,0 km/h (0 Bft) N-NE 22 2 min 0 W/m 4,9 C 6,3 C 0,0 km/h (0 Bft)
09/01/2012 11:00 6,8 C 90 % 1032,4 hPa 0,0 mm 0,0 km/h (0 Bft) N-NE 22 2 min 0 W/m 5,3 C 6,8 C 0,0 km/h (0 Bft)
09/01/2012 11:10 7,1 C 89 % 1032,3 hPa 0,0 mm 0,0 km/h (0 Bft) NO 315 2 min 0 W/m 5,4 C 7,1 C 0,0 km/h (0 Bft)
09/01/2012 11:20 7,3 C 89 % 1032,5 hPa 0,0 mm 2,9 km/h (1 Bft) N-NO 337 2 min 0 W/m 5,6 C 7,3 C 4,3 km/h (1 Bft)
09/01/2012 11:30 7,4 C 88 % 1032,4 hPa 0,0 mm 2,2 km/h (1 Bft) N-NE 22 2 min 0 W/m 5,5 C 7,4 C 3,6 km/h (1 Bft)
09/01/2012 11:40 7,6 C 87 % 1032,5 hPa 0,0 mm 2,5 km/h (1 Bft) N-NE 22 2 min 0 W/m 5,6 C 7,6 C 4,7 km/h (1 Bft)
09/01/2012 11:50 7,7 C 87 % 1032,4 hPa 0,0 mm 1,8 km/h (1 Bft) N-NE 22 2 min 0 W/m 5,7 C 7,7 C 3,2 km/h (1 Bft)
09/01/2012 12:00 7,8 C 86 % 1032,4 hPa 0,0 mm 1,4 km/h (1 Bft) N-NE 22 2 min 0 W/m 5,6 C 7,8 C 4,3 km/h (1 Bft)
09/01/2012 12:10 8,1 C 85 % 1032,3 hPa 0,0 mm 0,0 km/h (0 Bft) N-NE 22 2 min 0 W/m 5,7 C 8,1 C 0,0 km/h (0 Bft)
09/01/2012 12:20 8,3 C 84 % 1032,3 hPa 0,0 mm 2,5 km/h (1 Bft) N-NO 337 2 min 0 W/m 5,8 C 8,3 C 4,0 km/h (1 Bft)
09/01/2012 12:30 8,5 C 83 % 1032,2 hPa 0,0 mm 0,0 km/h (0 Bft) N-NO 337 2 min 0 W/m 5,8 C 8,5 C 0,0 km/h (0 Bft)
09/01/2012 12:40 8,6 C 83 % 1032,2 hPa 0,0 mm 0,4 km/h (0 Bft) N-NO 337 2 min 0 W/m 5,9 C 8,6 C 0,4 km/h (0 Bft)
09/01/2012 12:50 8,8 C 81 % 1032,1 hPa 0,0 mm 2,5 km/h (1 Bft) N 360 2 min 0 W/m 5,7 C 8,8 C 3,6 km/h (1 Bft)
09/01/2012 13:00 8,8 C 81 % 1032,0 hPa 0,0 mm 0,0 km/h (0 Bft) N-NE 22 2 min 0 W/m 5,7 C 8,8 C 0,0 km/h (0 Bft)
09/01/2012 13:10 8,8 C 80 % 1032,0 hPa 0,0 mm 0,7 km/h (0 Bft) N-NE 22 2 min 0 W/m 5,5 C 8,8 C 4,0 km/h (1 Bft)
09/01/2012 13:20 8,9 C 80 % 1031,9 hPa 0,0 mm 0,0 km/h (0 Bft) N-NO 337 2 min 0 W/m 5,6 C 8,9 C 3,6 km/h (1 Bft)
09/01/2012 13:30 9,0 C 79 % 1031,7 hPa 0,0 mm 0,0 km/h (0 Bft) N-NO 337 2 min 0 W/m 5,6 C 9,0 C 0,0 km/h (0 Bft)
09/01/2012 13:40 9,1 C 79 % 1031,7 hPa 0,0 mm 0,0 km/h (0 Bft) N 360 2 min 0 W/m 5,7 C 9,1 C 0,0 km/h (0 Bft)
09/01/2012 13:50 9,2 C 78 % 1031,7 hPa 0,0 mm 2,5 km/h (1 Bft) N-NE 22 2 min 0 W/m 5,6 C 9,2 C 4,3 km/h (1 Bft)
09/01/2012 14:00 9,2 C 77 % 1031,7 hPa 0,0 mm 1,8 km/h (1 Bft) NE 45 2 min 0 W/m 5,4 C 9,2 C 3,2 km/h (1 Bft)
09/01/2012 14:10 9,1 C 77 % 1031,5 hPa 0,0 mm 1,8 km/h (1 Bft) NE 45 2 min 0 W/m 5,3 C 9,1 C 1,8 km/h (1 Bft)
09/01/2012 14:20 9,1 C 77 % 1031,5 hPa 0,0 mm 1,8 km/h (1 Bft) N-NE 22 2 min 0 W/m 5,3 C 9,1 C 1,8 km/h (1 Bft)
09/01/2012 14:30 9,0 C 77 % 1031,6 hPa 0,0 mm 2,5 km/h (1 Bft) N-NE 22 2 min 0 W/m 5,2 C 9,0 C 6,5 km/h (2 Bft)
09/01/2012 14:40 8,9 C 76 % 1031,6 hPa 0,0 mm 0,0 km/h (0 Bft) NE 45 2 min 0 W/m 4,9 C 8,9 C 0,0 km/h (0 Bft)
09/01/2012 14:50 8,9 C 77 % 1031,5 hPa 0,0 mm 0,0 km/h (0 Bft) N-NE 22 2 min 0 W/m 5,1 C 8,9 C 0,0 km/h (0 Bft)
09/01/2012 15:00 8,9 C 77 % 1031,5 hPa 0,0 mm 4,3 km/h (1 Bft) E-NE 67 2 min 0 W/m 5,1 C 8,9 C 7,2 km/h (2 Bft)
09/01/2012 15:10 8,9 C 77 % 1031,5 hPa 0,0 mm 0,0 km/h (0 Bft) N-NE 22 2 min 0 W/m 5,1 C 8,9 C 0,0 km/h (0 Bft)
09/01/2012 15:20 8,9 C 78 % 1031,5 hPa 0,0 mm 0,0 km/h (0 Bft) N-NE 22 2 min 0 W/m 5,3 C 8,9 C 0,0 km/h (0 Bft)
09/01/2012 15:30 9,1 C 78 % 1031,5 hPa 0,0 mm 0,0 km/h (0 Bft) N-NE 22 2 min 0 W/m 5,5 C 9,1 C 0,0 km/h (0 Bft)
09/01/2012 15:40 9,1 C 78 % 1031,6 hPa 0,0 mm 0,0 km/h (0 Bft) N-NE 22 2 min 0 W/m 5,5 C 9,1 C 0,0 km/h (0 Bft)
09/01/2012 15:50 9,2 C 78 % 1031,6 hPa 0,0 mm 0,0 km/h (0 Bft) N-NE 22 2 min 0 W/m 5,6 C 9,2 C 0,0 km/h (0 Bft)
09/01/2012 16:00 9,2 C 78 % 1031,6 hPa 0,0 mm 0,0 km/h (0 Bft) N-NE 22 2 min 0 W/m 5,6 C 9,2 C 0,0 km/h (0 Bft)
09/01/2012 16:10 9,2 C 78 % 1031,7 hPa 0,0 mm 0,0 km/h (0 Bft) N-NE 22 2 min 0 W/m 5,6 C 9,2 C 0,0 km/h (0 Bft)
09/01/2012 16:20 9,2 C 78 % 1031,8 hPa 0,0 mm 0,0 km/h (0 Bft) N-NE 22 2 min 0 W/m 5,6 C 9,2 C 0,0 km/h (0 Bft)
09/01/2012 16:30 9,1 C 78 % 1031,8 hPa 0,0 mm 0,0 km/h (0 Bft) N-NE 22 2 min 0 W/m 5,5 C 9,1 C 0,0 km/h (0 Bft)
09/01/2012 16:40 9,1 C 78 % 1032,0 hPa 0,0 mm 0,0 km/h (0 Bft) N-NE 22 2 min 0 W/m 5,5 C 9,1 C 0,0 km/h (0 Bft)
09/01/2012 16:50 9,0 C 79 % 1032,1 hPa 0,0 mm 1,4 km/h (1 Bft) N-NE 22 2 min 0 W/m 5,6 C 9,0 C 3,2 km/h (1 Bft)
09/01/2012 17:00 8,9 C 79 % 1032,1 hPa 0,0 mm 0,0 km/h (0 Bft) N-NE 22 2 min 0 W/m 5,5 C 8,9 C 0,0 km/h (0 Bft)
09/01/2012 17:10 8,9 C 79 % 1032,3 hPa 0,0 mm 0,0 km/h (0 Bft) NE 45 2 min 0 W/m 5,5 C 8,9 C 0,0 km/h (0 Bft)
09/01/2012 17:20 8,6 C 80 % 1032,3 hPa 0,0 mm 0,0 km/h (0 Bft) NE 45 0 min 0 W/m 5,3 C 8,6 C 0,0 km/h (0 Bft)
09/01/2012 17:30 8,5 C 80 % 1032,4 hPa 0,0 mm 0,0 km/h (0 Bft) NE 45 0 min 0 W/m 5,3 C 8,5 C 0,0 km/h (0 Bft)
09/01/2012 17:40 8,3 C 81 % 1032,5 hPa 0,0 mm 0,0 km/h (0 Bft) NE 45 0 min 0 W/m 5,2 C 8,3 C 0,0 km/h (0 Bft)
09/01/2012 17:50 8,3 C 81 % 1032,5 hPa 0,0 mm 0,0 km/h (0 Bft) NE 45 0 min 0 W/m 5,2 C 8,3 C 0,0 km/h (0 Bft)
09/01/2012 18:00 8,2 C 82 % 1032,5 hPa 0,0 mm 0,0 km/h (0 Bft) NE 45 0 min 0 W/m 5,3 C 8,2 C 0,0 km/h (0 Bft)
09/01/2012 18:10 8,1 C 82 % 1032,4 hPa 0,0 mm 0,0 km/h (0 Bft) NE 45 0 min 0 W/m 5,2 C 8,1 C 0,0 km/h (0 Bft)
09/01/2012 18:20 8,0 C 82 % 1032,5 hPa 0,0 mm 0,0 km/h (0 Bft) NE 45 0 min 0 W/m 5,1 C 8,0 C 0,0 km/h (0 Bft)
09/01/2012 18:30 7,9 C 83 % 1032,5 hPa 0,0 mm 0,0 km/h (0 Bft) NE 45 0 min 0 W/m 5,2 C 7,9 C 0,0 km/h (0 Bft)
09/01/2012 18:40 7,8 C 83 % 1032,7 hPa 0,0 mm 0,0 km/h (0 Bft) NE 45 0 min 0 W/m 5,1 C 7,8 C 0,0 km/h (0 Bft)
09/01/2012 18:50 7,8 C 83 % 1032,5 hPa 0,0 mm 0,0 km/h (0 Bft) NE 45 0 min 0 W/m 5,1 C 7,8 C 0,0 km/h (0 Bft)
09/01/2012 19:00 7,6 C 83 % 1032,7 hPa 0,0 mm 0,0 km/h (0 Bft) NE 45 0 min 0 W/m 4,9 C 7,6 C 0,0 km/h (0 Bft)
09/01/2012 19:10 7,3 C 83 % 1032,7 hPa 0,0 mm 0,0 km/h (0 Bft) NE 45 0 min 0 W/m 4,6 C 7,3 C 0,0 km/h (0 Bft)
09/01/2012 19:20 7,1 C 84 % 1032,7 hPa 0,0 mm 0,0 km/h (0 Bft) NE 45 0 min 0 W/m 4,6 C 7,1 C 0,0 km/h (0 Bft)
09/01/2012 19:30 6,8 C 84 % 1032,8 hPa 0,0 mm 0,0 km/h (0 Bft) NE 45 0 min 0 W/m 4,3 C 6,8 C 0,0 km/h (0 Bft)
09/01/2012 19:40 6,5 C 85 % 1032,8 hPa 0,0 mm 0,0 km/h (0 Bft) NE 45 0 min 0 W/m 4,2 C 6,5 C 0,0 km/h (0 Bft)
09/01/2012 19:50 6,1 C 84 % 1032,9 hPa 0,0 mm 0,0 km/h (0 Bft) NE 45 0 min 0 W/m 3,6 C 6,1 C 0,0 km/h (0 Bft)
09/01/2012 20:00 5,8 C 85 % 1032,9 hPa 0,0 mm 0,0 km/h (0 Bft) NE 45 0 min 0 W/m 3,5 C 5,8 C 0,0 km/h (0 Bft)
09/01/2012 20:10 5,7 C 86 % 1033,0 hPa 0,0 mm 0,0 km/h (0 Bft) NE 45 0 min 0 W/m 3,5 C 5,7 C 0,0 km/h (0 Bft)
09/01/2012 20:20 5,6 C 86 % 1033,0 hPa 0,0 mm 0,0 km/h (0 Bft) NE 45 0 min 0 W/m 3,4 C 5,6 C 0,0 km/h (0 Bft)
09/01/2012 20:30 5,8 C 87 % 1033,0 hPa 0,0 mm 0,0 km/h (0 Bft) NE 45 0 min 0 W/m 3,8 C 5,8 C 0,0 km/h (0 Bft)
09/01/2012 20:40 5,8 C 87 % 1032,9 hPa 0,0 mm 0,0 km/h (0 Bft) NE 45 0 min 0 W/m 3,8 C 5,8 C 0,0 km/h (0 Bft)
09/01/2012 20:50 5,8 C 88 % 1033,0 hPa 0,0 mm 0,0 km/h (0 Bft) NE 45 0 min 0 W/m 4,0 C 5,8 C 0,0 km/h (0 Bft)
09/01/2012 21:00 5,9 C 88 % 1033,0 hPa 0,0 mm 0,0 km/h (0 Bft) NE 45 0 min 0 W/m 4,1 C 5,9 C 0,0 km/h (0 Bft)
09/01/2012 21:10 6,1 C 88 % 1033,0 hPa 0,0 mm 0,0 km/h (0 Bft) NE 45 0 min 0 W/m 4,3 C 6,1 C 0,0 km/h (0 Bft)
09/01/2012 21:20 5,9 C 89 % 1033,0 hPa 0,0 mm 0,0 km/h (0 Bft) NE 45 0 min 0 W/m 4,2 C 5,9 C 0,0 km/h (0 Bft)
09/01/2012 21:30 5,9 C 89 % 1033,1 hPa 0,0 mm 0,0 km/h (0 Bft) NE 45 0 min 0 W/m 4,2 C 5,9 C 0,0 km/h (0 Bft)
09/01/2012 21:40 5,8 C 89 % 1033,2 hPa 0,0 mm 0,0 km/h (0 Bft) NE 45 0 min 0 W/m 4,1 C 5,8 C 0,0 km/h (0 Bft)
09/01/2012 21:50 6,0 C 89 % 1033,1 hPa 0,0 mm 0,0 km/h (0 Bft) NE 45 0 min 0 W/m 4,3 C 6,0 C 0,0 km/h (0 Bft)
09/01/2012 22:00 6,3 C 89 % 1033,2 hPa 0,0 mm 0,0 km/h (0 Bft) N-NE 22 0 min 0 W/m 4,6 C 6,3 C 0,0 km/h (0 Bft)
09/01/2012 22:10 6,4 C 89 % 1033,3 hPa 0,0 mm 0,4 km/h (0 Bft) N-NE 22 0 min 0 W/m 4,7 C 6,4 C 3,6 km/h (1 Bft)
09/01/2012 22:20 6,6 C 89 % 1033,2 hPa 0,0 mm 0,0 km/h (0 Bft) N-NE 22 0 min 0 W/m 4,9 C 6,6 C 1,4 km/h (1 Bft)
09/01/2012 22:30 6,5 C 89 % 1033,4 hPa 0,0 mm 0,0 km/h (0 Bft) N-NE 22 0 min 0 W/m 4,8 C 6,5 C 0,0 km/h (0 Bft)
09/01/2012 22:40 6,5 C 89 % 1033,5 hPa 0,0 mm 0,0 km/h (0 Bft) N-NE 22 0 min 0 W/m 4,8 C 6,5 C 0,0 km/h (0 Bft)
09/01/2012 22:50 6,5 C 89 % 1033,4 hPa 0,0 mm 0,0 km/h (0 Bft) N-NE 22 0 min 0 W/m 4,8 C 6,5 C 0,0 km/h (0 Bft)
09/01/2012 23:00 6,4 C 89 % 1033,5 hPa 0,0 mm 0,4 km/h (0 Bft) N-NE 22 0 min 0 W/m 4,7 C 6,4 C 3,2 km/h (1 Bft)
09/01/2012 23:10 6,3 C 89 % 1033,5 hPa 0,0 mm 0,0 km/h (0 Bft) N-NE 22 0 min 0 W/m 4,6 C 6,3 C 0,0 km/h (0 Bft)
09/01/2012 23:20 6,3 C 90 % 1033,5 hPa 0,0 mm 0,0 km/h (0 Bft) N-NE 22 0 min 0 W/m 4,8 C 6,3 C 0,0 km/h (0 Bft)
09/01/2012 23:30 6,3 C 90 % 1033,5 hPa 0,0 mm 0,0 km/h (0 Bft) N-NE 22 0 min 0 W/m 4,8 C 6,3 C 0,0 km/h (0 Bft)
09/01/2012 23:40 6,1 C 89 % 1033,5 hPa 0,0 mm 0,0 km/h (0 Bft) N-NE 22 0 min 0 W/m 4,4 C 6,1 C 0,0 km/h (0 Bft)
09/01/2012 23:50 5,6 C 89 % 1033,6 hPa 0,0 mm 0,0 km/h (0 Bft) N-NE 22 0 min 0 W/m 3,9 C 5,6 C 0,0 km/h (0 Bft)
_ Min-Heure 08:50 14:40 00:20 - 23:50 - - - - 08:30 08:50 23:50
Minimum _ 3,1 C 76 % 1029,4 hPa - 0,0 km/h (0 Bft) - - - - 1,6 C 3,1 C 0,0 km/h (0 Bft)
_ Max-Heure 16:20 09:50 23:50 23:50 15:00 - - 17:10 23:50 12:40 16:20 15:00
Maximum _ 9,2 C 93 % 1033,6 hPa 0,0 mm 4,3 km/h
E-NE (1 Bft)
- - 2 min 0 W/m 5,9 C 9,2 C 7,2 km/h
E-NE (2 Bft)
Moyenne _ 6,5 C 86 % 1031,5 hPa #0,0 mm 0,3 km/h (0 Bft) N-NE - #1:42 h 0 W/m 4,3 C 6,5 C 0,5 km/h (0 Bft)
Saint Bonnet de Bellac- Haute Vienne - France